Location: Cherryland
(37.6794°N, 122.1033°W)
Time: 14:54:42
(UTC+00:00)

ARIANE 6 FM1 Upper Stage - Pass Details

Date: 14 December 2025
Orbit: 522 x 610 km, 62.0° (Epoch: 17 January)

Event Time Altitude Azimuth Distance (km) Brightness Sun altitude
Rises 14:29:43 0° 220° (SW) 2,702 6.0 -9.1°
Reaches altitude 10° 14:31:58 10° 224° (SW) 1,799 5.0 -8.6°
Maximum altitude 14:35:58 63° 306° (NW) 597 2.5 -7.9°
Drops below altitude 10° 14:39:55 10° 28° (NNE) 1,774 5.3 -7.2°
Sets 14:42:07 0° 32° (NNE) 2,660 6.2 -6.8°
